| time (UTC) | temp F | wind direction | speed MPH | gust MPH | rain 1hr in | rain 24hr in | rain mn in | humidity % | barometer mb |
| 20260504045712 | 39 | 0.0 | 0.0 | 0.03 | 0.14 | 0.14 | 90 | 1020.8 | |
| 20260504044712 | 39 | 0.0 | 0.0 | 0.04 | 0.14 | 0.14 | 90 | 1020.5 | |
| 20260504043712 | 39 | 0.0 | 0.0 | 0.04 | 0.14 | 0.14 | 89 | 1020.8 | |
| 20260504042713 | 40 | 0.0 | 0.0 | 0.03 | 0.13 | 0.13 | 89 | 1020.8 | |
| 20260504041712 | 40 | 0.0 | 0.0 | 0.03 | 0.12 | 0.12 | 89 | 1020.8 | |
| 20260504040712 | 40 | 0.0 | 0.0 | 0.04 | 0.12 | 0.12 | 89 | 1020.8 | |
| 20260504035712 | 40 | 0.0 | 0.0 | 0.03 | 0.11 | 0.11 | 89 | 1020.8 | |
| 20260504034712 | 40 | 0.0 | 0.0 | 0.02 | 0.10 | 0.10 | 89 | 1020.8 | |
| 20260504033713 | 40 | 0.0 | 0.0 | 0.04 | 0.10 | 0.10 | 89 | 1020.8 | |
| 20260504032713 | 40 | 0.0 | 0.0 | 0.04 | 0.10 | 0.10 | 89 | 1020.8 | |
| 20260504031713 | 40 | 0.0 | 0.0 | 0.03 | 0.09 | 0.09 | 88 | 1020.8 | |
| 20260504030713 | 40 | 0.0 | 0.0 | 0.04 | 0.08 | 0.08 | 88 | 1021.0 | |
| 20260504025712 | 40 | 0.0 | 0.0 | 0.04 | 0.08 | 0.08 | 88 | 1020.8 | |
| 20260504024713 | 41 | 0.0 | 0.0 | 0.04 | 0.08 | 0.08 | 88 | 1020.8 | |
| 20260504023713 | 41 | 0.0 | 0.0 | 0.04 | 0.06 | 0.06 | 88 | 1020.8 | |
| 20260504022712 | 41 | 0.0 | 0.0 | 0.04 | 0.06 | 0.06 | 88 | 1020.8 | |
| 20260504021713 | 41 | 0.0 | 0.0 | 0.04 | 0.06 | 0.06 | 88 | 1020.8 | |
| 20260504020733 | 41 | 0.0 | 0.0 | 0.02 | 0.04 | 0.04 | 88 | 1020.8 | |
| 20260504015713 | 41 | 0.0 | 0.0 | 0.02 | 0.04 | 0.04 | 88 | 1021.1 | |
| 20260504014713 | 42 | 0.0 | 0.0 | 0.03 | 0.04 | 0.04 | 88 | 1021.1 | |
| 20260504013712 | 42 | 0.0 | 0.0 | 0.01 | 0.02 | 0.02 | 87 | 1021.1 | |
| 20260504012712 | 42 | 45 | 0.0 | 1.0 | 0.02 | 0.02 | 0.02 | 87 | 1021.1 |
| 20260504011712 | 43 | 0.0 | 0.0 | 0.02 | 0.02 | 0.02 | 87 | 1021.1 | |
| 20260504010712 | 43 | 315 | 0.0 | 1.0 | 0.02 | 0.02 | 0.02 | 86 | 1021.1 |
| 20260504005734 | 43 | 0.0 | 0.0 | 0.02 | 0.02 | 0.02 | 85 | 1021.1 | |
| 20260504004714 | 44 | 0.0 | 0.0 | 0.01 | 0.01 | 0.01 | 84 | 1021.1 | |
| 20260504003713 | 44 | 0.0 | 0.0 | 0.01 | 0.01 | 0.01 | 83 | 1021.2 | |
| 20260504002712 | 44 | 315 | 1.0 | 3.0 | 0.00 | 0.00 | 0.00 | 81 | 1021.4 |
| 20260504001713 | 45 | 337 | 0.0 | 2.0 | 0.00 | 0.00 | 0.00 | 80 | 1021.4 |
| 20260504000712 | 45 | 202 | 0.0 | 1.0 | 0.00 | 0.00 | 0.00 | 79 | 1021.4 |
| 20260503235733 | 46 | 360 | 0.0 | 2.0 | 0.00 | 0.00 | 0.00 | 78 | 1021.4 |
| 20260503234712 | 46 | 0.0 | 1.0 | 0.00 | 0.00 | 0.00 | 77 | 1021.4 | |
| 20260503233712 | 46 | 109 | 2.0 | 3.0 | 0.00 | 0.00 | 0.00 | 76 | 1021.2 |
| 20260503232712 | 46 | 0.0 | 0.0 | 0.00 | 0.00 | 0.00 | 77 | 1021.4 | |
| 20260503231712 | 46 | 200 | 1.0 | 2.0 | 0.00 | 0.00 | 0.00 | 77 | 1021.1 |
| 20260503230714 | 46 | 95 | 1.0 | 2.0 | 0.00 | 0.00 | 0.00 | 76 | 1021.4 |
| 20260503225712 | 45 | 176 | 1.0 | 2.0 | 0.00 | 0.00 | 0.00 | 76 | 1021.4 |
| 20260503224733 | 46 | 110 | 2.0 | 4.0 | 0.00 | 0.00 | 0.00 | 75 | 1021.4 |
| 20260503223712 | 46 | 141 | 2.0 | 4.0 | 0.00 | 0.00 | 0.00 | 74 | 1021.7 |
| 20260503222712 | 46 | 360 | 0.0 | 1.0 | 0.00 | 0.00 | 0.00 | 75 | 1021.7 |
| 20260503221712 | 46 | 112 | 2.0 | 4.0 | 0.00 | 0.00 | 0.00 | 75 | 1021.8 |
| 20260503220712 | 46 | 45 | 2.0 | 4.0 | 0.00 | 0.00 | 0.00 | 75 | 1021.8 |
| 20260503215712 | 46 | 309 | 5.0 | 7.0 | 0.00 | 0.00 | 0.00 | 75 | 1021.8 |
| 20260503214712 | 46 | 0.0 | 0.0 | 0.00 | 0.00 | 0.00 | 74 | 1021.8 | |
| 20260503213712 | 47 | 112 | 2.0 | 4.0 | 0.00 | 0.00 | 0.00 | 75 | 1022.1 |
| 20260503212712 | 46 | 35 | 1.0 | 2.0 | 0.00 | 0.00 | 0.00 | 76 | 1022.1 |
| 20260503211732 | 46 | 324 | 0.0 | 4.0 | 0.00 | 0.00 | 0.00 | 74 | 1022.1 |
| 20260503210733 | 46 | 180 | 1.0 | 3.0 | 0.00 | 0.00 | 0.00 | 72 | 1022.1 |
| 20260503205733 | 47 | 119 | 5.0 | 7.0 | 0.00 | 0.00 | 0.00 | 70 | 1022.5 |
| 20260503204732 | 48 | 112 | 0.0 | 1.0 | 0.00 | 0.00 | 0.00 | 68 | 1022.1 |
| 20260503203713 | 48 | 320 | 4.0 | 4.0 | 0.00 | 0.00 | 0.00 | 68 | 1022.1 |
| 20260503202713 | 48 | 202 | 1.0 | 3.0 | 0.00 | 0.00 | 0.00 | 70 | 1022.2 |
| 20260503201733 | 48 | 97 | 2.0 | 4.0 | 0.00 | 0.00 | 0.00 | 71 | 1022.1 |
| 20260503200712 | 48 | 0.0 | 0.0 | 0.00 | 0.00 | 0.00 | 74 | 1022.4 | |
| 20260503195712 | 47 | 112 | 0.0 | 2.0 | 0.00 | 0.00 | 0.00 | 74 | 1022.1 |
| 20260503194834 | 47 | 163 | 2.0 | 3.0 | 0.00 | 0.00 | 0.00 | 75 | 1022.1 |
| 20260503193712 | 47 | 0.0 | 0.0 | 0.00 | 0.00 | 0.00 | 75 | 1022.5 | |
| 20260503192713 | 46 | 180 | 3.0 | 4.0 | 0.00 | 0.00 | 0.00 | 77 | 1022.4 |
| 20260503191713 | 46 | 112 | 2.0 | 4.0 | 0.00 | 0.00 | 0.00 | 78 | 1022.2 |
| 20260503190713 | 45 | 202 | 0.0 | 1.0 | 0.00 | 0.00 | 0.00 | 79 | 1022.2 |
| 20260503185712 | 45 | 202 | 2.0 | 4.0 | 0.00 | 0.00 | 0.00 | 81 | 1022.5 |
| 20260503184714 | 45 | 312 | 1.0 | 2.0 | 0.00 | 0.00 | 0.00 | 82 | 1022.5 |
| 20260503183712 | 44 | 0.0 | 0.0 | 0.00 | 0.00 | 0.00 | 83 | 1022.2 | |
| 20260503182713 | 44 | 112 | 2.0 | 3.0 | 0.00 | 0.00 | 0.00 | 84 | 1022.4 |
| 20260503181712 | 43 | 136 | 2.0 | 3.0 | 0.00 | 0.00 | 0.00 | 85 | 1022.5 |
| 20260503180712 | 43 | 0.0 | 0.0 | 0.00 | 0.00 | 0.00 | 86 | 1022.5 | |
| 20260503175712 | 42 | 112 | 1.0 | 2.0 | 0.00 | 0.00 | 0.00 | 87 | 1022.1 |
| 20260503174712 | 42 | 0.0 | 0.0 | 0.00 | 0.00 | 0.00 | 88 | 1022.2 | |
| 20260503173713 | 42 | 112 | 1.0 | 2.0 | 0.00 | 0.00 | 0.00 | 88 | 1022.1 |
| 20260503172712 | 42 | 22 | 1.0 | 2.0 | 0.00 | 0.00 | 0.00 | 89 | 1022.5 |
| 20260503171712 | 41 | 0.0 | 0.0 | 0.00 | 0.00 | 0.00 | 90 | 1022.5 | |
| 20260503170712 | 40 | 0.0 | 0.0 | 0.00 | 0.00 | 0.00 | 91 | 1022.5 | |
| 20260503150712 | 35 | 0.0 | 0.0 | 0.00 | 0.00 | 0.00 | 92 | 1022.5 | |
| 20260503130732 | 35 | 0.0 | 0.0 | 0.00 | 0.00 | 0.00 | 91 | 1022.8 | |
| 20260503110712 | 36 | 0.0 | 0.0 | 0.00 | 0.00 | 0.00 | 90 | 1023.8 | |
| 20260503080713 | 38 | 315 | 1.0 | 2.0 | 0.00 | 0.02 | 0.00 | 88 | 1023.1 |
| 20260503072713 | 38 | 0.0 | 0.0 | 0.00 | 0.02 | 0.02 | 88 | 1023.1 | |
| 20260503071732 | 39 | 0.0 | 0.0 | 0.00 | 0.02 | 0.02 | 87 | 1023.5 | |
| 20260503070714 | 39 | 0.0 | 0.0 | 0.00 | 0.03 | 0.02 | 86 | 1023.1 | |
| 20260503054712 | 41 | 0.0 | 0.0 | 0.00 | 0.08 | 0.02 | 83 | 1022.8 | |
| 20260503053712 | 42 | 0.0 | 0.0 | 0.00 | 0.08 | 0.02 | 82 | 1022.5 | |
| 20260503052713 | 42 | 0.0 | 0.0 | 0.00 | 0.09 | 0.02 | 82 | 1022.5 | |
| 20260503051712 | 42 | 292 | 0.0 | 2.0 | 0.00 | 0.10 | 0.02 | 81 | 1022.5 |
| 20260503050713 | 43 | 315 | 1.0 | 2.0 | 0.00 | 0.10 | 0.02 | 80 | 1022.5 |